Temp_Advection
nan nan nan nan nan nan nan nan nan nan nan nan nan nan nan nan nan nan nan nan nan nan nan nan nan nan nan nan nan nan nan nan nan nan nan nan nan nan nan nan nan nan nan nan nan nan nan nan nan nan nan nan nan nan
nan -0 -1 -1 -1 -1 -1 -1 -1 -1 -0 1 1 0 0 0 0 0 0 1 1 -0 -0 0 0 0 0 0 0 0 -0 0 0 0 0 0 0 0 -0 0 0 -0 -0 0 0 -0 -0 0 0 -0 -0 -0 -0 nan
nan -0 -1 -0 -1 -1 -1 -1 -0 -0 -0 0 0 0 1 1 0 0 0 1 0 -0 -0 0 0 0 0 0 0 0 0 0 0 0 0 0 0 0 0 0 -0 0 0 -0 -0 0 0 0 0 0 0 0 -0 nan
nan 0 -0 -1 -1 -1 -1 -1 -0 -0 0 0 0 1 0 0 0 1 1 1 0 0 -0 0 0 0 -0 0 0 0 0 0 0 0 0 0 0 0 0 -0 0 -0 -0 -0 -0 -0 0 0 0 0 0 0 0 nan
nan 0 0 -0 -1 -0 -0 -1 -1 -0 0 0 0 0 0 0 0 0 0 0 0 -0 0 -0 0 0 0 0 0 1 0 0 0 0 0 0 0 0 0 -0 -0 -0 -0 0 -0 -0 0 0 0 0 0 0 0 nan
nan -0 0 0 -0 -0 -0 -0 -0 -0 -0 0 0 0 0 0 0 -0 -0 -0 -0 0 0 0 0 -0 0 0 0 0 0 0 0 0 0 0 0 0 0 -0 -0 0 0 -0 -0 0 0 0 0 0 -0 -0 0 nan
nan -0 -0 0 0 -0 -0 -0 -0 -0 -0 -0 0 -0 0 0 0 0 -0 -0 0 0 -0 0 -0 -0 0 0 0 0 0 0 0 0 0 0 0 0 -0 -0 -0 0 0 0 0 0 -0 -0 -0 0 -0 -0 0 nan
nan -0 -0 -0 0 -0 -0 -0 -0 -0 -0 -0 -0 0 0 0 0 0 0 0 0 0 0 0 -0 -0 0 0 -0 0 0 -0 0 0 0 0 0 0 -0 -1 -0 0 0 0 0 0 0 0 -0 -0 -0 -0 -0 nan
nan -0 -0 -0 -0 0 -0 -0 -0 -0 -0 -0 0 0 0 0 0 0 0 0 0 0 -0 0 0 -0 -0 0 0 0 0 -0 0 -0 0 0 -0 -0 -1 -0 0 0 0 0 0 0 -0 -0 -0 0 -0 -0 -0 nan
nan -0 -0 -0 -0 -0 0 -0 -0 -0 -0 0 0 0 -0 0 0 0 0 0 0 -0 -0 -0 0 0 0 -0 -0 -0 -0 0 -0 -0 -0 -0 -0 -1 -0 0 0 0 0 0 -0 -0 0 0 -0 -0 -0 -0 -0 nan
nan 0 -0 -0 -0 -0 -0 -0 -0 -0 0 0 0 -0 0 0 0 -0 -0 0 0 -0 0 0 -0 -0 0 0 -0 -0 -0 0 -0 0 -0 -0 -0 -0 0 -0 -0 0 0 0 0 -0 -0 -0 0 0 -0 -0 -0 nan
nan -0 -0 -0 -0 -0 0 0 0 0 -0 0 0 -0 0 -0 0 0 -0 0 -0 -0 0 0 0 -0 -0 0 0 -0 0 -0 0 -0 -0 -0 -0 0 -0 -0 0 0 0 0 0 0 0 0 0 0 -0 -0 0 nan
nan -0 -0 -0 -0 -0 0 0 -0 0 0 -0 -0 -0 -0 0 -0 -0 -0 -0 -0 0 0 0 0 -0 -0 -0 0 0 0 -0 -0 -0 -0 -0 0 0 -0 0 0 0 0 0 -0 0 -0 -0 0 0 0 0 0 nan
nan 0 0 0 -0 0 0 0 0 0 0 0 0 -0 0 -0 -0 -0 -0 -0 -0 -0 0 -0 0 0 -0 -0 -0 0 -0 0 -0 -0 -1 -0 0 0 -0 0 0 1 1 0 0 -0 -0 -0 -0 0 0 -0 -0 nan
nan 0 0 -0 0 0 0 0 0 0 0 0 0 0 0 0 0 0 0 0 0 0 -0 -0 0 0 -0 -0 -0 -0 -0 -0 -0 -0 -0 0 0 0 0 0 -0 -0 0 0 0 0 0 0 0 -0 -0 0 0 nan
nan 0 -0 -0 0 0 0 0 0 -0 -0 0 0 0 0 0 -0 -0 0 -0 0 0 -0 -0 -0 -0 0 -0 -0 -0 -0 -0 -0 -0 -0 0 0 0 0 0 0 0 0 0 0 0 0 0 0 -0 -0 -0 -0 nan
nan -0 -0 0 0 0 0 0 0 0 0 0 -0 -0 -0 -0 0 -0 -0 -0 -0 0 0 -0 0 -0 -0 -0 -0 -0 -0 -0 0 0 0 -0 -0 0 0 0 0 0 0 0 0 0 0 0 -0 -0 -0 -0 -0 nan
nan -0 0 0 0 0 0 0 -0 0 0 -0 -0 0 0 -0 0 0 -0 -0 0 -0 0 0 -0 0 -0 -0 -0 -0 -0 -1 -1 -0 -0 -0 0 0 0 -0 0 -0 -0 -0 0 0 -0 0 -0 -0 -0 0 0 nan
nan 0 0 0 0 -0 -0 0 -0 0 0 0 -0 -0 -0 0 0 -0 -0 0 -0 0 -0 0 -0 -0 -0 -0 -0 0 0 0 -0 -0 0 -0 -0 0 0 -0 -0 0 0 0 0 0 0 -0 -0 -0 0 -0 -0 nan
nan 0 0 0 0 0 -0 0 0 0 0 -0 0 0 0 0 0 0 0 1 0 0 0 -0 -0 -0 -0 -0 0 -0 0 0 0 -0 -1 -0 0 0 0 -0 -0 0 -0 -0 -0 -0 -0 -0 -0 -0 -0 -0 -0 nan
nan 0 0 0 0 0 0 0 0 0 0 0 0 0 0 0 0 0 0 0 0 -0 -0 -1 -1 -0 0 0 0 -0 -0 0 1 0 0 -1 -1 0 0 0 -0 -0 0 0 -0 -0 -0 0 0 -0 -0 -0 -0 nan
nan 0 -0 -0 0 0 0 0 0 0 0 0 0 0 0 0 0 0 -0 -0 -0 -1 -0 -0 -0 -0 -0 0 0 -0 -0 0 0 -0 0 1 1 0 -0 -0 0 0 -0 -0 -0 -0 -0 -0 -0 -0 -0 -0 -0 nan
nan 0 0 -0 -0 0 -0 0 0 0 0 -0 -0 -0 0 0 0 0 -0 -0 -0 -0 -0 -0 -0 0 -0 -0 -0 -0 0 -0 0 0 -0 -0 0 0 0 0 1 0 -0 -0 -0 -0 -0 -0 -0 -0 -0 -0 -0 nan
nan 0 -0 -0 -0 -0 0 -0 -0 -0 0 -0 -0 -0 -0 -0 -0 -0 -0 -0 -1 -0 -0 0 0 -0 -0 -0 -0 -0 -0 -0 -0 0 0 -0 -1 -0 0 0 0 0 0 -0 -0 -0 -0 -0 -0 -0 0 -0 -0 nan
nan -0 -0 -0 -0 -0 0 0 0 -0 0 -0 0 0 -0 0 -0 -0 -0 -0 -0 -0 0 0 -0 -0 -0 -0 -0 -0 -0 -0 -0 -0 0 0 -0 -1 -0 -0 -0 0 0 0 -0 -0 -0 -0 0 0 0 0 0 nan
nan 0 -0 -0 -0 -0 -0 0 0 0 -0 -0 0 0 0 -0 -0 -0 -0 0 0 0 0 -0 -0 -0 -0 -0 -0 -0 -0 -0 -0 -0 -0 0 -0 -0 -0 -0 -1 -0 0 0 0 0 -0 -0 0 0 0 0 0 nan
nan 0 0 0 -0 -0 -0 -0 0 0 -0 -0 0 -0 0 -0 -0 -0 0 0 0 0 -0 -0 -0 -0 -0 -0 -0 -0 -0 -0 -0 -0 0 0 0 0 0 0 -0 -0 0 0 0 0 0 0 0 0 0 0 0 nan
nan -0 0 0 0 0 -0 -0 -0 -0 -0 -0 -0 -0 -0 -0 -0 -0 0 0 0 -0 -0 -0 -0 -0 -0 -0 -0 -0 -0 -0 -0 -0 0 -0 0 0 0 0 0 0 0 0 0 0 0 0 0 0 0 0 0 nan
nan -0 -0 -0 0 -0 -0 -0 -0 -0 -0 -0 -0 -0 -0 -0 0 0 0 -0 -0 -0 -0 -0 -0 -0 -0 -0 -0 -0 -0 -0 -1 -1 -1 -1 -1 0 0 0 0 0 -0 0 0 0 0 0 0 0 0 0 0 nan
nan 0 0 -0 -0 -0 -0 -0 -0 -0 0 -0 -0 -0 0 0 -0 -0 -0 -0 -0 -0 -0 -0 -0 -0 -0 -0 -0 -0 -0 -0 -0 -1 -1 -0 -0 -0 0 -0 -0 0 0 -0 -0 0 0 -0 0 0 0 0 -0 nan
nan 0 0 0 -0 -0 -0 -0 -0 0 -0 -0 0 0 0 0 0 -0 -0 -0 -0 -0 -0 -0 -0 -0 -0 -0 -0 -0 -0 -0 0 0 1 0 0 0 -0 0 0 0 0 0 -0 -0 0 0 0 0 0 -0 -0 nan
nan 0 0 -0 -0 -0 -0 0 0 0 0 0 0 0 0 0 0 -0 -0 -0 -0 -0 -0 -0 -0 -0 -0 -0 -0 -0 -0 -0 -0 -0 0 1 0 0 0 0 1 0 0 0 0 0 0 0 0 0 -0 -0 0 nan
nan nan nan nan nan nan nan nan nan nan nan nan nan nan nan nan nan nan nan nan nan nan nan nan nan nan nan nan nan nan nan nan nan nan nan nan nan nan nan nan nan nan nan nan nan nan nan nan nan nan nan nan nan nan
Wind_Speed
16 16 21 16 15 18 20 22 22 21 19 24 24 24 25 17 16 17 19 16 11 5 6 7 8 3 3 4 4 7 5 3 5 5 4 4 4 4 2 2 4 8 7 5 7 9 13 6 2 3 10 15 15 16
17 16 16 21 18 17 18 17 12 11 13 16 16 17 21 17 11 6 15 16 12 9 5 8 11 10 10 7 4 10 0 3 6 4 2 2 3 2 4 4 3 4 5 3 6 1 4 3 6 5 10 15 17 20
16 16 15 15 17 17 20 14 7 11 10 14 16 15 15 18 12 10 14 14 11 9 8 8 7 10 10 10 9 4 3 5 4 4 3 1 4 3 4 5 4 4 2 3 3 2 9 15 17 18 15 17 22 21
16 16 15 15 15 15 14 15 8 5 11 10 8 14 12 13 16 15 16 13 14 5 2 1 4 8 10 13 14 12 6 8 7 4 2 1 3 3 2 2 4 2 5 3 7 11 13 10 10 15 21 22 24 25
18 16 15 15 14 15 15 14 15 10 7 10 11 13 11 10 9 10 10 14 16 8 2 1 2 5 5 5 8 13 10 6 4 4 2 3 2 2 1 1 5 7 7 7 7 7 9 14 15 17 21 25 27 29
18 16 15 13 13 13 14 12 11 12 10 14 14 12 9 6 4 4 2 6 9 9 3 1 2 1 4 6 6 8 7 5 4 5 3 3 2 3 3 3 6 13 11 12 12 10 13 17 21 20 21 23 26 27
18 16 15 14 13 12 13 13 14 11 7 12 15 15 14 9 9 3 2 4 10 11 3 2 3 1 5 7 6 5 7 3 2 3 3 2 3 4 2 3 4 7 11 12 9 10 15 14 19 22 24 28 29 27
18 17 15 14 13 12 13 13 12 11 8 9 7 17 17 13 8 5 7 9 11 5 3 2 2 3 8 3 4 5 4 3 1 2 2 2 3 3 4 16 12 8 9 9 10 10 16 19 22 26 27 28 28 30
17 16 15 14 13 12 12 10 10 9 10 5 9 17 22 15 6 8 8 7 6 2 2 1 3 2 8 3 4 3 4 3 2 3 3 4 3 5 9 9 7 7 7 7 10 11 14 19 25 30 29 28 29 33
17 16 15 14 13 12 10 9 8 4 8 6 19 8 4 11 10 12 6 2 1 0 1 0 1 2 3 3 2 4 1 2 3 2 2 3 5 20 19 15 13 10 10 9 9 15 20 27 28 30 29 29 28 31
18 17 15 14 13 12 9 7 5 3 10 5 3 3 15 22 9 3 3 1 1 1 4 3 4 3 2 2 3 1 2 1 2 3 2 2 4 5 5 6 7 9 9 8 12 19 25 28 30 31 31 30 31 33
17 17 16 14 13 11 10 6 6 5 3 4 5 12 12 3 4 2 2 2 4 3 6 5 6 3 3 3 3 2 1 1 1 2 2 3 4 7 6 4 5 7 9 15 21 27 29 28 28 29 32 34 34 33
17 16 15 13 14 12 10 9 6 8 3 7 3 3 2 1 3 6 7 3 3 9 10 9 5 4 3 3 5 1 3 2 3 2 3 4 4 4 3 5 4 6 16 23 26 28 25 29 33 31 34 35 33 33
15 17 16 12 12 10 9 11 8 10 5 4 5 3 2 3 4 4 2 3 5 10 17 14 7 3 2 2 2 2 2 2 2 3 5 4 3 1 3 9 14 22 26 25 25 25 27 31 33 32 33 33 31 32
14 11 13 11 9 11 12 13 11 15 4 3 3 3 5 3 2 2 4 4 6 15 18 10 6 3 2 2 1 3 2 3 4 4 3 5 6 5 8 11 18 26 28 26 24 26 29 31 31 32 31 32 32 31
11 10 12 9 8 7 6 10 20 14 4 4 4 3 4 2 2 1 6 5 10 16 11 4 3 3 2 2 3 5 3 5 3 4 11 7 8 8 13 18 24 27 27 27 27 28 30 29 29 31 32 30 28 26
10 14 11 11 7 8 9 7 11 4 5 4 3 7 4 3 1 5 8 9 14 14 3 4 4 2 4 2 3 4 5 5 8 7 8 12 14 20 26 30 30 30 27 28 30 32 30 29 29 28 28 27 28 24
16 11 10 9 11 11 9 8 4 4 4 4 3 4 5 6 3 3 7 16 15 9 6 2 6 4 5 5 4 4 10 13 15 16 17 19 22 27 27 29 29 27 28 32 32 29 28 26 26 27 28 22 28 28
14 11 10 10 12 11 6 5 5 4 6 3 7 7 4 3 7 7 9 16 8 13 6 6 3 3 4 7 8 8 7 9 11 16 19 20 23 24 27 30 29 30 28 28 28 27 26 25 24 24 23 27 23 24
10 10 10 10 15 7 4 2 4 2 2 4 7 5 4 3 3 6 11 19 16 8 6 4 5 7 4 4 6 7 10 17 17 21 24 23 23 24 26 29 32 31 30 27 25 23 24 24 24 20 21 20 21 21
14 11 14 15 16 5 4 3 4 3 3 3 4 4 2 4 4 6 7 14 9 6 6 18 16 10 11 14 15 17 19 23 21 18 22 26 27 29 29 28 27 28 27 23 23 26 21 20 22 20 19 20 22 20
17 17 13 13 3 5 2 4 2 2 3 2 2 4 1 1 2 5 9 9 7 15 10 13 12 10 15 19 19 20 26 21 19 19 21 24 24 27 28 29 29 25 24 24 22 21 23 21 20 20 22 20 20 18
12 6 4 3 3 3 1 4 1 1 1 3 3 3 2 1 2 9 5 7 9 10 10 14 16 17 19 21 22 18 11 14 18 21 25 27 24 26 26 25 22 22 22 21 19 20 20 19 20 19 19 17 16 16
7 3 2 2 2 3 2 1 1 1 1 1 1 2 2 1 3 2 3 4 7 10 13 16 17 17 17 11 7 11 16 20 24 24 20 23 26 25 24 24 20 18 19 20 18 18 21 22 19 18 17 17 15 14
0 2 1 3 2 2 1 2 1 1 1 0 0 1 1 1 1 2 2 4 4 7 7 9 7 0 4 9 13 17 20 21 20 22 22 22 22 24 23 22 20 22 18 18 20 23 22 21 19 18 16 14 13 12
2 0 1 2 2 1 2 1 1 2 1 1 1 1 1 1 1 3 2 6 5 8 12 7 7 10 13 16 20 19 17 17 20 21 20 20 19 20 23 22 25 24 19 20 22 23 22 19 18 17 15 13 10 8
1 1 2 2 2 3 2 2 2 1 2 4 2 3 1 1 3 2 2 3 6 7 5 7 11 15 16 15 11 13 16 18 17 18 20 17 16 17 16 20 23 22 22 21 20 19 19 18 17 15 13 11 8 4
1 1 1 3 2 2 2 2 3 3 2 4 6 3 4 4 0 2 2 4 1 4 10 15 14 10 8 10 13 15 16 15 14 18 19 16 17 14 19 19 18 20 19 18 16 15 15 15 13 12 10 8 7 3
1 0 1 1 0 1 4 3 3 2 3 7 2 2 1 2 1 3 1 4 7 11 11 9 7 7 10 11 12 16 15 16 20 24 26 27 28 25 22 21 23 23 21 18 13 12 11 9 9 8 6 3 3 2
1 2 0 1 1 2 2 5 1 1 5 3 1 1 0 1 1 3 5 7 7 6 5 5 7 11 13 14 16 13 14 16 20 23 26 28 29 27 25 26 29 28 24 19 14 10 6 5 6 6 4 1 2 3
1 2 1 2 3 2 2 4 5 5 4 3 5 4 2 1 2 4 5 4 2 2 3 5 9 13 14 16 17 15 17 19 22 22 23 25 25 26 28 30 29 24 18 15 12 10 7 4 6 8 4 0 4 6
1 2 1 2 2 3 4 1 0 1 1 1 1 3 2 3 2 1 4 2 2 3 5 8 12 13 13 16 13 15 19 22 23 22 24 27 27 26 27 26 22 17 15 12 10 8 6 4 6 7 4 3 1 5
2 2 3 3 2 1 2 1 1 1 1 2 2 2 2 2 2 0 2 6 3 4 8 11 12 13 12 14 10 15 19 20 20 21 22 23 24 24 26 25 20 17 14 11 9 7 6 3 4 5 4 3 2 5
Wind_Direction
304 294 269 289 299 299 284 291 290 271 261 240 247 239 233 258 262 276 260 221 211 229 259 231 221 183 168 191 194 141 139 173 188 204 211 209 244 181 234 181 191 184 189 198 229 249 256 98 132 287 347 315 308 307
293 306 304 276 287 310 284 290 317 302 279 241 241 232 242 231 245 264 245 221 215 218 250 236 229 219 208 188 177 178 53 145 172 191 229 192 203 180 237 243 189 227 237 247 219 40 93 296 290 310 305 300 303 301
315 295 304 307 288 293 326 281 289 295 249 236 239 237 221 213 216 248 230 233 200 238 261 242 234 231 234 224 206 187 215 184 179 149 144 165 231 185 209 236 235 214 256 245 281 182 318 323 317 309 312 305 305 300
306 315 302 302 304 290 308 307 280 246 260 258 216 196 215 220 220 217 217 191 201 182 240 176 226 234 245 234 225 223 236 194 175 146 135 176 229 207 263 10 251 22 163 227 274 283 287 287 307 308 305 302 299 295
293 296 311 311 302 302 292 302 312 301 226 234 211 212 213 211 209 206 198 198 202 190 115 52 282 235 214 222 219 217 213 204 164 151 157 197 147 185 172 269 232 203 233 232 259 301 289 290 298 299 296 296 295 292
285 292 294 305 304 303 304 279 317 310 316 205 204 210 180 168 157 141 195 216 207 181 113 207 249 321 208 178 165 154 165 161 164 153 163 186 194 201 222 233 245 238 241 246 272 283 287 288 291 295 295 299 297 290
278 281 287 292 303 294 304 299 279 300 306 306 201 185 184 181 174 162 183 173 174 168 173 149 168 151 153 155 150 154 151 147 155 142 206 201 185 188 251 243 229 246 254 256 261 285 285 286 299 304 302 296 295 284
276 273 278 285 290 302 298 301 295 276 289 286 257 188 184 172 176 156 139 144 153 166 171 145 121 164 168 148 133 147 145 143 118 172 151 202 159 212 251 244 264 270 260 259 267 269 276 291 296 301 304 302 298 287
272 270 268 275 282 290 307 305 311 287 284 270 228 177 169 172 165 169 155 160 172 136 127 161 178 172 164 128 121 127 159 170 176 204 208 193 183 223 231 248 250 265 232 250 269 280 295 298 301 302 304 301 298 294
265 264 264 268 274 279 290 303 302 277 252 223 173 164 124 154 141 139 142 141 160 316 75 161 63 132 155 157 107 130 187 128 182 131 138 228 257 255 259 260 265 262 245 253 277 297 305 302 303 302 301 298 295 295
258 260 256 257 261 266 274 295 292 236 201 237 205 102 139 143 128 120 86 135 155 216 183 171 200 140 151 180 125 49 146 124 193 129 238 238 258 240 257 237 242 250 236 252 288 298 300 297 297 298 297 296 297 299
253 253 254 250 249 247 251 256 259 214 262 187 155 130 142 126 84 133 140 158 211 198 171 175 155 117 128 131 132 98 152 185 170 129 236 251 251 269 253 251 251 241 259 295 300 300 302 300 300 300 298 300 301 300
256 247 252 248 241 237 228 224 232 207 237 63 6 114 153 123 168 201 182 195 202 176 174 160 137 131 126 97 81 152 181 154 126 190 227 242 280 271 240 292 267 284 300 301 300 303 302 305 311 306 302 302 302 301
248 242 240 235 239 231 227 220 210 160 156 148 168 183 230 184 232 212 242 150 139 149 145 142 115 115 104 103 110 150 69 199 224 237 238 239 261 334 308 297 285 298 307 302 300 303 304 307 305 304 302 303 303 302
240 250 212 211 213 225 213 200 180 168 183 173 160 211 220 232 240 183 131 117 112 144 138 122 101 124 117 120 138 116 151 235 235 235 231 208 205 238 287 301 313 315 312 306 303 304 306 306 304 303 303 303 302 303
226 210 215 211 203 200 210 198 175 177 196 190 205 225 212 210 209 135 158 121 145 147 135 108 123 150 147 154 177 207 194 224 231 216 240 245 248 276 299 308 311 310 307 303 303 305 307 305 304 302 303 303 305 306
200 214 206 200 192 191 197 201 141 178 210 190 244 227 217 302 29 171 184 176 166 157 157 143 163 144 110 193 225 197 219 236 257 277 285 289 291 305 310 312 314 314 311 310 309 310 309 310 307 305 304 307 305 303
206 204 197 196 182 176 181 188 157 205 219 214 215 220 215 220 203 224 184 181 163 189 157 164 132 179 190 197 213 225 242 270 286 298 306 310 306 307 303 307 311 310 312 316 316 312 307 307 307 307 307 303 310 314
201 196 191 183 181 171 176 202 183 214 215 225 231 233 227 246 227 223 180 181 178 182 163 164 223 210 214 213 248 260 276 293 304 305 299 301 303 302 305 310 314 317 316 309 309 309 310 308 306 307 302 310 309 314
189 180 181 184 177 166 176 195 190 232 217 220 225 220 203 209 207 214 201 184 183 169 209 215 221 218 217 239 259 304 307 308 306 304 303 305 307 307 309 313 315 317 315 314 309 311 310 309 308 306 307 311 311 310
181 183 189 189 177 166 189 180 197 221 241 218 248 196 219 206 183 179 171 171 182 222 222 233 245 251 268 279 296 315 316 316 303 291 292 298 312 309 312 314 314 314 308 305 307 312 310 308 309 312 316 311 309 309
148 172 146 160 104 164 188 205 207 209 192 210 158 173 204 211 180 172 168 194 232 238 236 240 260 271 274 287 303 313 316 309 304 304 307 307 310 312 315 318 318 313 311 309 311 309 308 312 315 315 311 313 311 314
153 132 101 129 136 149 137 168 186 209 258 176 160 178 141 217 210 163 216 227 244 254 264 260 264 271 274 288 303 317 313 313 310 310 312 313 316 317 320 321 317 312 313 315 314 312 314 317 318 317 315 317 321 322
122 128 109 87 77 88 112 93 94 105 97 225 224 145 117 23 173 232 261 257 244 251 265 277 279 284 293 299 322 323 317 314 312 317 321 322 321 323 324 323 322 320 319 318 319 318 318 322 322 325 327 324 323 323
42 13 43 50 85 108 97 143 67 231 164 50 224 148 115 11 237 250 255 276 309 270 272 263 275 346 341 334 325 322 320 320 322 323 328 326 323 322 326 330 332 332 333 330 324 323 325 327 328 328 329 329 327 329
89 210 74 160 137 178 175 171 194 175 120 151 191 320 46 273 248 254 244 333 18 89 94 66 18 343 333 329 323 323 324 327 325 324 331 331 327 325 326 331 331 336 337 329 326 325 323 326 330 336 338 341 334 311
113 203 164 156 150 147 118 104 122 154 174 199 186 160 145 199 245 270 9 81 88 77 39 350 328 323 321 321 326 328 325 323 327 332 335 333 332 329 327 331 330 333 332 330 326 322 324 329 333 339 344 353 347 318
13 181 219 176 173 199 171 176 188 213 192 177 148 189 187 200 167 351 89 123 84 351 335 325 329 335 345 342 333 325 326 331 336 337 339 346 353 346 342 339 336 336 333 331 333 330 328 328 333 346 351 7 34 46
17 294 163 60 107 231 230 218 235 219 191 173 199 201 236 182 114 106 101 324 330 326 328 339 351 359 342 334 334 338 344 345 345 348 349 350 350 351 347 346 347 347 346 344 347 338 329 330 338 347 1 27 49 74
307 214 319 138 189 240 235 208 250 221 205 212 290 338 346 130 14 353 342 337 333 339 353 1 352 343 349 354 356 355 355 355 356 352 345 344 342 344 347 349 349 348 345 340 340 346 339 326 336 340 338 258 151 145
292 183 269 246 261 264 281 263 263 253 257 250 241 238 243 233 282 323 327 331 346 351 351 336 344 350 351 350 352 355 359 357 352 351 346 343 344 348 350 346 340 337 338 339 342 348 355 354 353 358 7 56 191 197
245 213 248 274 284 304 315 293 242 196 228 197 215 208 214 191 199 311 2 342 345 350 348 346 350 352 346 346 347 352 351 348 347 345 350 352 349 348 343 341 343 345 345 345 347 352 356 4 9 14 30 40 152 184
274 254 245 276 286 274 332 340 41 49 76 80 69 76 106 138 133 319 4 13 4 2 359 356 351 347 344 344 346 348 350 349 349 348 349 352 351 350 349 351 354 354 352 352 353 356 360 359 11 19 29 43 119 156
Height
1490 1488 1487 1486 1484 1483 1480 1477 1473 1470 1468 1469 1470 1473 1477 1479 1482 1483 1484 1485 1488 1488 1487 1487 1487 1488 1488 1490 1490 1497 1500 1501 1504 1503 1501 1497 1498 1496 1501 1495 1500 1502 1505 1506 1503 1500 1498 1502 1504 1505 1506 1507 1507 1506
1487 1485 1483 1482 1481 1479 1477 1475 1470 1467 1465 1465 1467 1469 1472 1473 1477 1478 1479 1480 1483 1487 1486 1484 1485 1486 1487 1489 1492 1493 1495 1495 1497 1497 1502 1499 1501 1502 1496 1495 1502 1503 1494 1492 1495 1492 1501 1503 1505 1506 1506 1505 1505 1504
1485 1482 1481 1479 1477 1476 1473 1471 1469 1468 1466 1464 1465 1466 1466 1469 1471 1473 1475 1476 1480 1484 1484 1483 1483 1484 1486 1488 1489 1492 1494 1495 1496 1496 1498 1498 1499 1498 1496 1495 1493 1498 1503 1499 1498 1494 1497 1498 1500 1502 1503 1503 1502 1500
1482 1480 1477 1477 1474 1472 1471 1468 1466 1465 1464 1464 1464 1463 1464 1466 1467 1467 1469 1473 1478 1480 1481 1480 1479 1481 1483 1486 1489 1490 1491 1492 1495 1497 1498 1499 1498 1499 1494 1498 1496 1498 1501 1498 1496 1497 1497 1499 1500 1500 1499 1498 1496 1493
1479 1477 1475 1472 1471 1469 1469 1467 1463 1462 1461 1462 1463 1463 1463 1464 1464 1466 1467 1469 1473 1478 1478 1479 1479 1480 1482 1484 1485 1488 1491 1493 1493 1496 1498 1498 1499 1501 1502 1502 1496 1496 1493 1494 1492 1494 1496 1497 1497 1497 1495 1493 1490 1486
1474 1473 1472 1471 1468 1467 1466 1464 1463 1461 1458 1458 1460 1462 1464 1464 1465 1467 1470 1470 1472 1473 1477 1480 1481 1480 1482 1483 1486 1487 1490 1493 1493 1494 1495 1497 1497 1499 1498 1494 1491 1490 1492 1492 1492 1493 1494 1493 1493 1492 1489 1486 1483 1479
1470 1469 1468 1467 1466 1465 1464 1462 1461 1459 1458 1457 1456 1460 1462 1464 1467 1468 1470 1469 1470 1474 1476 1479 1479 1481 1482 1484 1486 1488 1490 1493 1494 1495 1495 1496 1498 1499 1497 1492 1486 1487 1488 1489 1490 1491 1490 1489 1486 1485 1483 1479 1476 1473
1465 1464 1464 1464 1463 1462 1461 1460 1458 1458 1456 1456 1456 1458 1459 1463 1468 1469 1469 1470 1472 1474 1476 1477 1479 1481 1481 1483 1486 1487 1490 1493 1494 1495 1497 1496 1499 1498 1495 1485 1484 1485 1485 1486 1487 1487 1486 1484 1482 1478 1476 1472 1468 1465
1460 1460 1460 1460 1460 1459 1458 1457 1456 1455 1453 1454 1455 1455 1457 1462 1466 1467 1470 1472 1473 1476 1474 1476 1475 1478 1481 1483 1485 1488 1489 1490 1494 1494 1496 1497 1493 1491 1480 1480 1481 1482 1483 1484 1484 1483 1482 1480 1476 1471 1468 1464 1461 1456
1455 1456 1456 1457 1457 1457 1457 1456 1455 1454 1454 1455 1454 1458 1459 1460 1464 1467 1472 1473 1474 1474 1475 1476 1478 1479 1481 1483 1485 1488 1488 1489 1491 1493 1496 1494 1485 1479 1477 1477 1478 1479 1480 1480 1480 1479 1477 1474 1470 1464 1460 1457 1454 1449
1450 1451 1452 1452 1453 1454 1454 1454 1454 1454 1454 1455 1455 1457 1458 1460 1465 1467 1469 1474 1475 1476 1475 1475 1478 1479 1482 1481 1483 1488 1488 1491 1488 1491 1492 1487 1481 1473 1472 1472 1473 1474 1477 1478 1477 1474 1471 1468 1462 1457 1451 1449 1445 1440
1445 1445 1447 1448 1449 1451 1452 1452 1452 1453 1455 1454 1456 1458 1462 1463 1465 1469 1472 1476 1473 1470 1473 1475 1476 1478 1481 1482 1483 1488 1489 1491 1485 1493 1491 1484 1471 1470 1471 1471 1472 1473 1475 1474 1472 1467 1463 1459 1455 1451 1445 1440 1436 1432
1440 1441 1443 1445 1446 1448 1450 1451 1452 1453 1454 1457 1458 1459 1461 1465 1465 1464 1467 1466 1466 1466 1469 1472 1475 1477 1481 1482 1483 1484 1486 1486 1492 1490 1482 1472 1469 1470 1470 1471 1471 1471 1471 1468 1463 1460 1456 1451 1448 1443 1437 1432 1428 1423
1436 1437 1439 1442 1444 1446 1448 1449 1451 1453 1455 1457 1458 1459 1460 1460 1459 1455 1453 1453 1457 1460 1463 1467 1472 1476 1479 1481 1484 1484 1491 1492 1487 1487 1476 1466 1467 1467 1468 1469 1468 1466 1463 1459 1455 1452 1449 1444 1439 1435 1430 1425 1420 1415
1433 1434 1436 1440 1442 1443 1445 1447 1450 1453 1455 1455 1456 1453 1455 1454 1456 1455 1454 1456 1457 1461 1463 1469 1473 1476 1480 1483 1483 1488 1491 1485 1478 1471 1465 1464 1464 1464 1465 1464 1462 1459 1455 1451 1449 1445 1441 1437 1432 1427 1423 1418 1413 1408
1430 1434 1435 1438 1441 1442 1444 1447 1446 1451 1452 1453 1453 1453 1453 1453 1453 1452 1453 1457 1460 1462 1464 1468 1472 1475 1476 1478 1481 1478 1478 1475 1465 1463 1460 1461 1461 1461 1460 1458 1455 1452 1448 1445 1442 1438 1434 1429 1425 1419 1414 1409 1405 1402
1430 1431 1434 1437 1440 1442 1444 1447 1446 1450 1450 1449 1449 1448 1449 1449 1449 1452 1454 1457 1460 1463 1462 1466 1469 1469 1479 1478 1476 1472 1469 1459 1458 1459 1459 1458 1458 1456 1453 1450 1447 1444 1441 1437 1434 1430 1425 1421 1416 1411 1406 1402 1399 1394
1427 1431 1434 1436 1439 1441 1444 1446 1447 1449 1449 1448 1447 1447 1447 1448 1449 1451 1452 1454 1459 1461 1462 1464 1466 1469 1468 1468 1464 1460 1458 1457 1457 1456 1456 1455 1453 1450 1447 1444 1441 1437 1433 1429 1425 1421 1418 1413 1409 1404 1400 1396 1392 1388
1427 1430 1433 1436 1438 1442 1444 1446 1446 1446 1446 1446 1445 1446 1447 1448 1448 1450 1450 1454 1457 1458 1460 1461 1462 1460 1456 1455 1454 1455 1456 1456 1455 1454 1452 1450 1447 1443 1440 1437 1433 1429 1426 1422 1418 1415 1410 1407 1403 1399 1395 1391 1387 1383
1427 1431 1434 1436 1439 1442 1443 1445 1445 1444 1445 1445 1444 1445 1446 1447 1447 1448 1449 1451 1455 1458 1459 1457 1450 1449 1451 1452 1452 1454 1455 1454 1452 1448 1444 1442 1440 1437 1434 1431 1427 1423 1419 1415 1412 1409 1404 1400 1397 1393 1389 1386 1382 1379
1426 1430 1433 1436 1439 1441 1442 1441 1443 1444 1443 1443 1442 1443 1444 1444 1446 1448 1449 1451 1455 1452 1447 1443 1444 1449 1449 1449 1450 1451 1450 1449 1447 1445 1440 1436 1434 1431 1427 1424 1420 1417 1413 1409 1406 1401 1399 1395 1391 1388 1384 1381 1378 1375
1426 1430 1432 1434 1435 1439 1440 1441 1442 1442 1443 1442 1442 1443 1444 1444 1444 1446 1448 1450 1445 1439 1441 1443 1443 1445 1446 1447 1446 1446 1444 1441 1440 1438 1436 1432 1428 1425 1421 1418 1414 1409 1407 1404 1400 1397 1393 1390 1386 1384 1380 1377 1373 1370
1431 1432 1434 1435 1437 1438 1441 1441 1441 1441 1441 1442 1442 1443 1444 1444 1444 1446 1445 1441 1437 1436 1439 1440 1441 1443 1443 1442 1442 1440 1438 1437 1435 1434 1431 1427 1424 1421 1416 1413 1409 1405 1401 1398 1395 1392 1388 1386 1382 1379 1375 1372 1369 1366
1432 1433 1434 1434 1436 1439 1440 1441 1442 1442 1442 1442 1442 1441 1444 1445 1444 1444 1441 1437 1434 1434 1435 1436 1437 1437 1437 1437 1437 1437 1436 1434 1431 1428 1426 1422 1419 1415 1412 1408 1405 1401 1398 1393 1390 1387 1384 1380 1377 1374 1371 1368 1366 1363
1435 1437 1437 1437 1438 1440 1441 1441 1442 1442 1442 1444 1443 1443 1444 1445 1444 1442 1438 1432 1431 1431 1432 1434 1435 1435 1436 1435 1435 1434 1432 1429 1426 1424 1422 1419 1415 1411 1407 1404 1400 1397 1393 1390 1386 1383 1379 1376 1373 1371 1368 1365 1362 1361
1436 1437 1438 1437 1439 1440 1440 1441 1442 1443 1444 1444 1444 1445 1445 1445 1443 1438 1435 1433 1431 1432 1433 1435 1435 1435 1435 1433 1432 1431 1429 1426 1424 1421 1419 1415 1412 1407 1403 1399 1395 1392 1390 1387 1382 1378 1375 1372 1369 1366 1364 1362 1360 1359
1437 1437 1437 1437 1438 1439 1440 1441 1442 1443 1444 1443 1442 1445 1445 1446 1440 1436 1435 1435 1435 1436 1436 1436 1436 1434 1433 1432 1430 1429 1427 1425 1422 1419 1416 1412 1409 1405 1402 1398 1393 1390 1385 1382 1379 1375 1371 1368 1366 1364 1362 1360 1358 1357
1437 1437 1438 1438 1438 1439 1439 1439 1440 1440 1438 1439 1441 1443 1443 1439 1438 1437 1436 1437 1437 1437 1437 1435 1433 1432 1431 1430 1429 1427 1425 1421 1419 1417 1413 1410 1407 1403 1399 1395 1391 1387 1382 1379 1375 1371 1369 1366 1364 1362 1360 1359 1358 1357
1437 1437 1437 1438 1438 1438 1438 1437 1436 1435 1436 1436 1437 1436 1437 1436 1437 1437 1438 1437 1437 1436 1435 1433 1433 1432 1432 1430 1427 1424 1421 1418 1416 1411 1408 1404 1401 1399 1395 1390 1386 1382 1378 1374 1372 1369 1366 1364 1363 1361 1360 1359 1358 1358
1438 1438 1438 1438 1438 1437 1435 1435 1435 1435 1435 1436 1437 1437 1437 1437 1437 1437 1437 1436 1436 1435 1434 1433 1433 1432 1430 1427 1426 1424 1421 1418 1415 1412 1407 1403 1399 1394 1390 1386 1381 1377 1374 1371 1369 1367 1365 1363 1362 1361 1359 1359 1359 1359
1438 1438 1438 1437 1436 1435 1435 1434 1434 1435 1435 1435 1436 1437 1437 1437 1437 1437 1436 1436 1436 1435 1435 1434 1433 1431 1429 1427 1424 1422 1420 1418 1414 1411 1407 1402 1397 1392 1387 1383 1379 1376 1372 1369 1367 1365 1363 1362 1361 1360 1358 1358 1358 1359
1437 1438 1438 1437 1435 1434 1433 1433 1433 1433 1433 1434 1434 1435 1436 1436 1437 1438 1437 1437 1436 1436 1435 1434 1432 1431 1429 1427 1424 1422 1419 1416 1412 1409 1404 1399 1395 1391 1386 1382 1377 1373 1370 1368 1366 1364 1363 1362 1361 1360 1359 1358 1358 1358
1436 1436 1436 1436 1434 1433 1433 1433 1433 1433 1433 1433 1434 1435 1435 1437 1438 1439 1439 1437 1437 1436 1435 1434 1432 1430 1428 1426 1424 1422 1419 1415 1412 1408 1404 1400 1395 1390 1385 1379 1375 1372 1369 1367 1365 1364 1363 1362 1362 1361 1360 1359 1359 1359